GEFSNE_prec_meanprecacc_246.txt.gz
Total_Precipitation_Accumulation
1.38 1.38 1.39 1.40 1.51 1.66 1.80 2.06 2.27 2.17 1.89 1.63 1.61 1.56 1.50 1.56 1.76 1.49 1.37 1.39 1.25 1.15 1.15 1.14 1.17 1.20 1.21 1.18 1.19 1.25 1.34 1.50 1.74 1.94 2.10 2.29 2.43 2.53
1.29 1.25 1.24 1.23 1.29 1.36 1.47 1.66 1.93 2.09 1.93 1.59 1.53 1.47 1.40 1.36 1.59 1.39 1.38 1.41 1.18 1.02 0.95 0.94 0.98 1.04 1.05 1.02 1.02 1.06 1.11 1.19 1.37 1.57 1.79 1.98 2.13 2.29
1.16 1.17 1.17 1.20 1.26 1.23 1.29 1.42 1.60 1.81 1.93 1.73 1.57 1.48 1.43 1.46 1.49 1.38 1.29 1.20 1.10 1.04 0.90 0.84 0.85 0.92 0.94 0.92 0.94 0.96 0.98 1.08 1.22 1.38 1.57 1.77 1.93 2.03
1.09 1.15 1.15 1.18 1.22 1.22 1.28 1.36 1.50 1.71 1.85 1.89 1.71 1.57 1.49 1.46 1.48 1.41 1.17 1.05 1.04 1.12 0.96 0.85 0.79 0.78 0.86 0.84 0.83 0.88 0.94 1.05 1.14 1.24 1.40 1.55 1.67 1.75
1.04 1.10 1.14 1.18 1.17 1.20 1.26 1.32 1.45 1.58 1.77 1.86 1.76 1.63 1.55 1.48 1.56 1.45 1.31 1.36 1.13 1.07 0.98 0.90 0.83 0.82 1.02 1.04 0.82 0.79 0.84 0.97 1.05 1.10 1.21 1.31 1.39 1.44
0.89 1.00 1.06 1.09 1.09 1.17 1.23 1.31 1.40 1.56 1.69 1.76 1.68 1.57 1.52 1.51 1.58 1.61 1.53 1.46 1.33 1.05 1.03 0.97 0.93 0.94 1.26 1.75 1.24 0.92 0.87 0.93 1.01 1.07 1.09 1.09 1.10 1.11
0.78 0.86 0.92 0.93 0.92 0.99 1.01 1.14 1.31 1.48 1.57 1.65 1.62 1.58 1.52 1.61 1.64 1.56 1.51 1.48 1.36 1.21 1.19 1.07 1.18 1.45 1.96 2.56 2.06 1.42 1.18 1.07 1.01 1.04 1.06 1.04 0.99 0.94
0.85 0.86 0.81 0.81 0.77 0.74 0.80 0.90 1.09 1.32 1.52 1.61 1.58 1.58 1.55 1.60 1.70 1.66 1.61 1.62 1.57 1.31 1.26 1.22 1.41 2.13 2.76 3.05 2.58 1.75 1.41 1.18 1.05 1.08 1.13 1.10 0.98 0.88
0.91 0.88 0.75 0.71 0.82 0.83 0.84 0.85 0.96 1.10 1.34 1.58 1.64 1.54 1.54 1.60 1.76 1.82 1.72 1.68 1.63 1.40 1.43 1.45 1.65 2.44 2.68 2.79 2.59 1.83 1.51 1.34 1.25 1.31 1.29 1.10 0.92 0.82
0.74 0.80 0.87 0.89 0.83 0.85 0.85 0.96 1.05 1.14 1.22 1.35 1.56 1.50 1.45 1.55 1.68 1.71 1.65 1.57 1.48 1.36 1.40 1.57 1.78 2.30 2.29 2.39 2.42 1.89 1.58 1.44 1.36 1.35 1.30 1.09 0.90 0.80
0.56 0.60 0.66 0.72 0.72 0.79 0.90 1.08 1.14 1.25 1.24 1.40 1.43 1.37 1.37 1.41 1.37 1.43 1.66 1.77 1.66 1.38 1.28 1.46 1.68 1.98 2.03 2.10 2.02 1.83 1.65 1.53 1.41 1.34 1.23 0.99 0.86 0.81
0.59 0.65 0.63 0.57 0.61 0.73 0.93 1.16 1.31 1.36 1.44 1.59 1.56 1.53 1.44 1.40 1.30 1.33 1.63 1.82 1.76 1.52 1.27 1.32 1.48 1.67 1.91 1.88 1.73 1.61 1.65 1.68 1.57 1.49 1.31 1.01 0.77 0.72
0.64 0.71 0.72 0.61 0.57 0.64 0.84 1.06 1.23 1.28 1.50 1.75 1.64 1.47 1.42 1.38 1.34 1.33 1.46 1.55 1.51 1.40 1.17 1.27 1.48 1.59 1.72 1.76 1.69 1.65 1.58 1.60 1.61 1.66 1.53 1.22 0.88 0.67
0.70 0.70 0.70 0.66 0.62 0.69 0.84 1.01 1.14 1.33 1.54 1.65 1.45 1.28 1.19 1.17 1.21 1.16 1.14 1.14 1.17 1.15 1.09 1.22 1.48 1.68 1.68 1.57 1.65 1.65 1.62 1.63 1.63 1.67 1.67 1.49 1.18 0.95
0.63 0.68 0.64 0.61 0.71 0.92 1.04 1.14 1.29 1.51 1.58 1.45 1.32 1.19 1.07 1.09 1.05 1.03 1.02 1.05 1.03 0.89 0.83 0.95 1.22 1.45 1.57 1.55 1.59 1.57 1.66 1.84 1.84 1.80 1.74 1.58 1.36 1.15
0.58 0.71 0.75 0.77 0.93 1.14 1.28 1.38 1.48 1.56 1.43 1.30 1.22 1.10 0.96 1.02 1.06 1.03 1.12 1.14 1.12 1.04 0.92 0.93 1.05 1.24 1.38 1.39 1.52 1.63 1.68 2.05 2.12 1.92 1.86 1.79 1.54 1.30
0.55 0.73 0.88 0.92 1.04 1.20 1.33 1.40 1.45 1.46 1.38 1.25 1.17 1.08 0.99 0.97 0.94 0.89 0.98 1.04 1.08 1.11 1.08 1.05 1.07 1.11 1.18 1.26 1.46 1.59 1.71 1.97 2.09 1.87 1.74 1.83 1.70 1.44
0.62 0.89 0.97 0.96 1.01 1.11 1.23 1.32 1.31 1.28 1.24 1.24 1.22 1.17 1.07 0.96 0.92 0.88 0.89 0.96 1.04 1.02 1.01 1.00 0.98 0.99 1.09 1.19 1.37 1.50 1.54 1.72 1.78 1.63 1.44 1.50 1.64 1.46
0.67 0.87 0.97 1.01 1.05 1.09 1.11 1.14 1.19 1.20 1.15 1.14 1.15 1.09 0.99 0.91 0.89 0.90 0.89 0.93 0.95 0.90 0.81 0.75 0.75 0.82 0.96 1.26 1.42 1.47 1.46 1.47 1.45 1.43 1.32 1.22 1.35 1.35
0.64 0.81 0.92 0.98 1.04 1.07 1.06 1.03 1.07 1.11 1.06 0.99 0.98 0.97 0.92 0.89 0.89 0.89 0.89 0.85 0.84 0.79 0.74 0.65 0.63 0.71 0.86 1.09 1.46 1.60 1.40 1.20 1.14 1.22 1.22 1.17 1.28 1.30
0.56 0.68 0.79 0.87 0.89 0.90 0.94 0.96 1.00 1.04 0.98 0.93 0.93 0.94 0.94 0.90 0.84 0.76 0.71 0.64 0.69 0.71 0.70 0.72 0.70 0.64 0.63 0.76 1.04 1.31 1.36 1.22 1.06 1.03 1.04 1.10 1.13 1.04
0.54 0.64 0.72 0.75 0.75 0.71 0.72 0.76 0.82 0.84 0.85 0.87 0.87 0.84 0.80 0.77 0.71 0.64 0.62 0.63 0.67 0.70 0.69 0.67 0.64 0.62 0.65 0.75 0.91 1.08 1.17 1.06 0.97 0.96 0.93 0.88 0.85 0.89
0.56 0.60 0.65 0.67 0.66 0.64 0.62 0.61 0.65 0.70 0.73 0.75 0.78 0.76 0.71 0.66 0.61 0.55 0.53 0.51 0.53 0.55 0.59 0.64 0.66 0.65 0.67 0.69 0.72 0.81 0.89 0.88 0.81 0.79 0.88 0.90 0.82 0.87

GEFSNE_prec_meanprecacc_252.txt.gz
Total_Precipitation_Accumulation
1.41 1.40 1.41 1.42 1.53 1.68 1.83 2.09 2.30 2.21 1.93 1.67 1.66 1.61 1.55 1.59 1.79 1.54 1.41 1.44 1.30 1.19 1.19 1.18 1.19 1.22 1.24 1.21 1.22 1.29 1.39 1.55 1.79 1.98 2.14 2.33 2.47 2.58
1.32 1.27 1.25 1.25 1.31 1.37 1.49 1.67 1.95 2.12 1.95 1.60 1.56 1.51 1.47 1.41 1.63 1.44 1.44 1.46 1.23 1.06 0.99 0.98 1.01 1.07 1.07 1.04 1.05 1.09 1.15 1.24 1.42 1.62 1.84 2.02 2.17 2.32
1.18 1.19 1.20 1.22 1.27 1.24 1.30 1.43 1.62 1.83 1.94 1.74 1.59 1.52 1.48 1.52 1.53 1.42 1.34 1.24 1.14 1.08 0.94 0.88 0.89 0.97 0.97 0.95 0.98 0.99 1.02 1.12 1.27 1.43 1.62 1.82 1.97 2.07
1.11 1.18 1.18 1.19 1.23 1.24 1.29 1.37 1.51 1.72 1.87 1.91 1.73 1.58 1.52 1.51 1.53 1.47 1.22 1.10 1.08 1.16 0.99 0.88 0.81 0.80 0.89 0.87 0.88 0.93 1.00 1.09 1.19 1.30 1.45 1.60 1.72 1.79
1.05 1.12 1.15 1.19 1.19 1.21 1.27 1.33 1.46 1.59 1.79 1.88 1.78 1.65 1.57 1.50 1.60 1.50 1.36 1.40 1.16 1.10 1.01 0.93 0.86 0.84 1.05 1.07 0.86 0.85 0.90 1.01 1.09 1.16 1.27 1.37 1.44 1.48
0.90 1.01 1.08 1.11 1.10 1.18 1.24 1.32 1.41 1.58 1.72 1.80 1.71 1.60 1.55 1.55 1.64 1.66 1.58 1.50 1.36 1.08 1.06 0.99 0.96 0.98 1.29 1.79 1.28 0.97 0.93 0.98 1.06 1.12 1.14 1.14 1.14 1.15
0.79 0.87 0.94 0.95 0.94 1.01 1.03 1.16 1.33 1.51 1.62 1.71 1.67 1.62 1.56 1.67 1.70 1.62 1.56 1.54 1.41 1.25 1.22 1.10 1.21 1.49 2.00 2.60 2.11 1.48 1.25 1.13 1.06 1.09 1.11 1.09 1.03 0.98
0.86 0.87 0.82 0.82 0.79 0.76 0.82 0.92 1.11 1.35 1.56 1.67 1.64 1.64 1.60 1.65 1.76 1.72 1.67 1.68 1.63 1.36 1.29 1.25 1.44 2.18 2.80 3.09 2.63 1.81 1.49 1.27 1.14 1.15 1.19 1.15 1.01 0.91
0.92 0.89 0.76 0.72 0.83 0.85 0.86 0.87 0.98 1.11 1.36 1.61 1.68 1.60 1.60 1.66 1.82 1.87 1.78 1.75 1.70 1.46 1.47 1.48 1.67 2.46 2.71 2.83 2.64 1.87 1.57 1.41 1.34 1.39 1.36 1.16 0.96 0.85
0.74 0.81 0.88 0.90 0.84 0.87 0.88 0.99 1.06 1.16 1.24 1.37 1.58 1.52 1.48 1.59 1.72 1.76 1.71 1.65 1.58 1.44 1.46 1.62 1.81 2.32 2.31 2.41 2.44 1.92 1.62 1.49 1.43 1.43 1.38 1.16 0.96 0.84
0.57 0.62 0.69 0.74 0.74 0.81 0.93 1.10 1.15 1.26 1.26 1.42 1.45 1.39 1.40 1.44 1.41 1.46 1.70 1.84 1.74 1.46 1.34 1.50 1.71 2.00 2.05 2.12 2.03 1.85 1.67 1.56 1.44 1.38 1.27 1.05 0.91 0.86
0.60 0.67 0.64 0.58 0.63 0.76 0.96 1.19 1.32 1.37 1.45 1.60 1.58 1.55 1.46 1.43 1.34 1.38 1.67 1.88 1.82 1.58 1.31 1.35 1.50 1.69 1.94 1.90 1.75 1.63 1.67 1.70 1.58 1.50 1.33 1.03 0.81 0.76
0.65 0.73 0.73 0.62 0.57 0.65 0.85 1.08 1.25 1.29 1.51 1.76 1.64 1.48 1.43 1.39 1.36 1.36 1.50 1.60 1.56 1.45 1.22 1.31 1.50 1.61 1.73 1.77 1.71 1.68 1.61 1.62 1.63 1.68 1.55 1.23 0.90 0.70
0.71 0.71 0.70 0.66 0.62 0.70 0.85 1.02 1.15 1.34 1.55 1.66 1.46 1.29 1.20 1.18 1.22 1.18 1.15 1.16 1.21 1.19 1.13 1.26 1.52 1.69 1.70 1.58 1.67 1.67 1.66 1.67 1.66 1.70 1.69 1.51 1.20 0.98
0.63 0.68 0.64 0.61 0.71 0.92 1.04 1.14 1.30 1.53 1.59 1.46 1.32 1.19 1.08 1.09 1.06 1.04 1.03 1.06 1.04 0.92 0.87 0.99 1.25 1.46 1.58 1.56 1.60 1.60 1.70 1.88 1.86 1.82 1.76 1.59 1.38 1.16
0.59 0.72 0.76 0.77 0.93 1.14 1.28 1.38 1.49 1.57 1.44 1.31 1.23 1.11 0.97 1.03 1.07 1.04 1.13 1.15 1.13 1.06 0.95 0.95 1.07 1.26 1.39 1.40 1.54 1.65 1.70 2.06 2.14 1.94 1.88 1.81 1.56 1.32
0.56 0.74 0.88 0.92 1.05 1.20 1.33 1.41 1.46 1.47 1.39 1.27 1.19 1.09 1.00 0.98 0.95 0.90 0.99 1.06 1.10 1.13 1.11 1.07 1.09 1.14 1.21 1.29 1.48 1.61 1.73 1.98 2.10 1.89 1.77 1.86 1.74 1.47
0.63 0.89 0.97 0.96 1.01 1.11 1.23 1.33 1.32 1.29 1.24 1.25 1.24 1.19 1.08 0.97 0.93 0.89 0.90 0.98 1.06 1.05 1.04 1.02 1.00 1.02 1.13 1.23 1.41 1.53 1.56 1.74 1.79 1.65 1.46 1.53 1.69 1.50
0.67 0.88 0.97 1.01 1.05 1.09 1.12 1.15 1.20 1.22 1.16 1.16 1.17 1.11 0.99 0.92 0.90 0.91 0.90 0.95 0.98 0.93 0.86 0.79 0.79 0.86 1.00 1.30 1.46 1.50 1.48 1.48 1.46 1.45 1.35 1.25 1.38 1.37
0.65 0.83 0.93 0.99 1.04 1.09 1.08 1.05 1.09 1.12 1.07 1.00 1.00 0.99 0.93 0.90 0.90 0.91 0.91 0.88 0.87 0.82 0.78 0.71 0.67 0.75 0.90 1.13 1.50 1.65 1.43 1.23 1.16 1.25 1.26 1.21 1.31 1.34
0.58 0.69 0.80 0.88 0.90 0.92 0.96 0.97 1.01 1.05 0.99 0.94 0.95 0.98 0.97 0.93 0.87 0.78 0.73 0.66 0.71 0.74 0.73 0.74 0.72 0.66 0.66 0.78 1.07 1.36 1.40 1.26 1.10 1.08 1.09 1.15 1.18 1.09
0.54 0.65 0.73 0.77 0.77 0.73 0.74 0.78 0.83 0.85 0.86 0.89 0.90 0.88 0.84 0.81 0.74 0.66 0.65 0.66 0.70 0.73 0.72 0.69 0.65 0.63 0.67 0.79 0.95 1.12 1.21 1.11 1.03 1.02 0.99 0.94 0.90 0.94
0.57 0.62 0.66 0.68 0.68 0.64 0.62 0.62 0.66 0.71 0.74 0.76 0.80 0.79 0.73 0.69 0.64 0.58 0.56 0.54 0.55 0.57 0.61 0.65 0.68 0.67 0.69 0.71 0.74 0.84 0.92 0.92 0.85 0.84 0.93 0.94 0.86 0.91

GEFSNE_prec_meanprecacc_258.txt.gz
Total_Precipitation_Accumulation
1.44 1.43 1.44 1.44 1.55 1.70 1.85 2.11 2.33 2.22 1.94 1.68 1.67 1.63 1.58 1.62 1.81 1.57 1.44 1.45 1.33 1.23 1.23 1.21 1.22 1.25 1.27 1.24 1.26 1.33 1.44 1.62 1.86 2.05 2.21 2.40 2.54 2.66
1.34 1.30 1.29 1.28 1.34 1.39 1.50 1.68 1.96 2.13 1.97 1.61 1.57 1.54 1.53 1.46 1.66 1.49 1.47 1.48 1.26 1.10 1.03 1.02 1.04 1.09 1.10 1.07 1.09 1.12 1.18 1.27 1.46 1.68 1.90 2.10 2.25 2.40
1.20 1.22 1.24 1.28 1.33 1.29 1.33 1.45 1.63 1.84 1.95 1.75 1.59 1.53 1.52 1.58 1.57 1.45 1.36 1.27 1.17 1.13 0.98 0.92 0.92 0.99 1.00 0.98 1.01 1.03 1.05 1.15 1.30 1.47 1.68 1.88 2.04 2.14
1.12 1.20 1.21 1.24 1.29 1.29 1.34 1.40 1.53 1.73 1.87 1.91 1.73 1.58 1.53 1.54 1.56 1.50 1.24 1.11 1.10 1.18 1.02 0.91 0.85 0.83 0.91 0.89 0.89 0.95 1.02 1.12 1.22 1.34 1.51 1.67 1.80 1.88
1.07 1.14 1.18 1.23 1.23 1.25 1.31 1.36 1.49 1.61 1.80 1.89 1.79 1.65 1.57 1.51 1.60 1.51 1.38 1.42 1.18 1.12 1.04 0.96 0.89 0.87 1.07 1.09 0.88 0.87 0.91 1.03 1.11 1.18 1.31 1.42 1.52 1.59
0.91 1.02 1.09 1.13 1.14 1.22 1.27 1.34 1.43 1.60 1.75 1.82 1.72 1.61 1.55 1.56 1.65 1.67 1.59 1.51 1.37 1.09 1.09 1.02 0.99 1.00 1.31 1.80 1.29 0.99 0.94 0.99 1.07 1.14 1.17 1.18 1.19 1.23
0.80 0.88 0.95 0.97 0.97 1.05 1.07 1.19 1.36 1.54 1.64 1.73 1.69 1.63 1.57 1.68 1.71 1.63 1.57 1.55 1.42 1.26 1.25 1.13 1.24 1.51 2.01 2.63 2.14 1.50 1.26 1.14 1.07 1.10 1.13 1.11 1.06 1.02
0.86 0.87 0.82 0.83 0.81 0.78 0.86 0.96 1.14 1.37 1.58 1.68 1.65 1.65 1.61 1.66 1.77 1.73 1.68 1.70 1.65 1.38 1.32 1.28 1.47 2.21 2.83 3.11 2.65 1.83 1.51 1.29 1.15 1.17 1.21 1.17 1.04 0.94
0.92 0.89 0.76 0.72 0.83 0.85 0.87 0.89 1.01 1.14 1.38 1.63 1.70 1.61 1.62 1.68 1.83 1.88 1.80 1.77 1.71 1.49 1.51 1.52 1.71 2.50 2.73 2.85 2.66 1.89 1.58 1.42 1.35 1.41 1.39 1.20 1.02 0.91
0.75 0.81 0.89 0.90 0.84 0.88 0.88 0.99 1.08 1.18 1.25 1.38 1.59 1.54 1.50 1.61 1.74 1.78 1.73 1.67 1.61 1.48 1.49 1.66 1.85 2.36 2.34 2.44 2.47 1.94 1.63 1.51 1.46 1.45 1.41 1.19 1.00 0.88
0.58 0.63 0.70 0.75 0.75 0.82 0.94 1.11 1.17 1.28 1.27 1.43 1.47 1.40 1.41 1.46 1.43 1.48 1.73 1.87 1.77 1.50 1.38 1.54 1.75 2.04 2.09 2.16 2.08 1.89 1.69 1.58 1.47 1.41 1.31 1.09 0.97 0.92
0.61 0.68 0.66 0.60 0.66 0.77 0.97 1.20 1.34 1.38 1.46 1.61 1.59 1.56 1.47 1.44 1.36 1.39 1.69 1.91 1.86 1.62 1.35 1.40 1.55 1.73 1.98 1.95 1.78 1.66 1.70 1.72 1.61 1.53 1.36 1.07 0.85 0.82
0.65 0.73 0.73 0.63 0.58 0.66 0.87 1.09 1.26 1.30 1.51 1.76 1.65 1.49 1.43 1.40 1.38 1.38 1.53 1.63 1.60 1.49 1.25 1.34 1.53 1.64 1.76 1.81 1.74 1.70 1.63 1.64 1.65 1.69 1.57 1.26 0.93 0.73
0.71 0.72 0.71 0.67 0.63 0.71 0.86 1.04 1.16 1.35 1.55 1.66 1.46 1.29 1.20 1.19 1.23 1.19 1.17 1.20 1.25 1.23 1.17 1.30 1.55 1.72 1.72 1.61 1.69 1.69 1.68 1.68 1.67 1.71 1.70 1.52 1.22 1.00
0.64 0.69 0.65 0.62 0.72 0.93 1.05 1.15 1.31 1.53 1.59 1.46 1.33 1.20 1.08 1.10 1.08 1.05 1.04 1.09 1.07 0.95 0.90 1.02 1.29 1.50 1.61 1.59 1.63 1.63 1.72 1.90 1.87 1.83 1.77 1.61 1.39 1.18
0.59 0.73 0.77 0.78 0.94 1.15 1.29 1.39 1.49 1.58 1.45 1.31 1.24 1.11 0.98 1.04 1.08 1.04 1.14 1.16 1.14 1.07 0.96 0.97 1.10 1.30 1.43 1.43 1.56 1.67 1.72 2.08 2.15 1.95 1.89 1.82 1.56 1.34
0.57 0.74 0.89 0.93 1.05 1.21 1.34 1.41 1.46 1.47 1.41 1.28 1.19 1.10 1.01 0.99 0.96 0.91 1.00 1.07 1.11 1.14 1.12 1.07 1.10 1.15 1.24 1.32 1.51 1.63 1.75 2.00 2.12 1.90 1.78 1.86 1.75 1.48
0.64 0.90 0.98 0.96 1.02 1.12 1.23 1.33 1.32 1.29 1.26 1.27 1.26 1.20 1.10 0.98 0.94 0.90 0.91 0.99 1.07 1.06 1.05 1.03 1.01 1.04 1.15 1.26 1.43 1.54 1.57 1.75 1.81 1.66 1.47 1.54 1.71 1.52
0.68 0.88 0.98 1.02 1.06 1.10 1.12 1.16 1.22 1.23 1.17 1.17 1.20 1.14 1.02 0.95 0.93 0.93 0.91 0.96 1.00 0.94 0.87 0.81 0.80 0.88 1.02 1.32 1.48 1.52 1.49 1.49 1.47 1.46 1.36 1.27 1.40 1.39
0.65 0.83 0.93 0.99 1.04 1.09 1.09 1.06 1.10 1.13 1.08 1.02 1.05 1.04 0.97 0.93 0.94 0.94 0.93 0.89 0.90 0.84 0.79 0.72 0.69 0.77 0.92 1.15 1.52 1.66 1.44 1.24 1.17 1.27 1.28 1.23 1.33 1.36
0.59 0.70 0.80 0.89 0.91 0.93 0.97 0.98 1.02 1.07 1.00 0.96 0.99 1.03 1.01 0.95 0.89 0.81 0.76 0.68 0.74 0.77 0.75 0.75 0.73 0.68 0.67 0.80 1.09 1.37 1.41 1.28 1.13 1.11 1.11 1.17 1.21 1.12
0.56 0.66 0.74 0.77 0.78 0.74 0.75 0.79 0.84 0.86 0.88 0.91 0.94 0.92 0.87 0.83 0.75 0.67 0.66 0.67 0.71 0.75 0.73 0.69 0.65 0.64 0.69 0.81 0.97 1.14 1.23 1.13 1.05 1.04 1.01 0.96 0.93 0.97
0.60 0.64 0.68 0.69 0.68 0.65 0.64 0.64 0.68 0.73 0.77 0.79 0.84 0.82 0.76 0.71 0.66 0.60 0.57 0.56 0.56 0.59 0.63 0.67 0.69 0.67 0.69 0.73 0.76 0.85 0.94 0.94 0.88 0.87 0.96 0.97 0.88 0.94

GEFSNE_prec_meanprecacc_264.txt.gz
Total_Precipitation_Accumulation
1.47 1.47 1.47 1.48 1.58 1.74 1.89 2.16 2.38 2.27 1.98 1.71 1.69 1.65 1.61 1.66 1.85 1.59 1.46 1.47 1.34 1.25 1.24 1.23 1.25 1.28 1.30 1.27 1.29 1.36 1.48 1.65 1.89 2.08 2.26 2.45 2.60 2.73
1.37 1.33 1.32 1.31 1.37 1.42 1.53 1.72 2.00 2.18 2.01 1.65 1.59 1.55 1.55 1.49 1.71 1.51 1.50 1.51 1.28 1.11 1.04 1.03 1.06 1.11 1.12 1.10 1.11 1.15 1.21 1.30 1.49 1.71 1.92 2.13 2.29 2.45
1.21 1.23 1.26 1.30 1.36 1.32 1.36 1.48 1.65 1.87 1.99 1.78 1.61 1.54 1.53 1.60 1.60 1.47 1.38 1.29 1.20 1.14 0.99 0.93 0.93 1.01 1.01 0.99 1.03 1.05 1.07 1.17 1.33 1.50 1.70 1.90 2.06 2.17
1.13 1.21 1.23 1.26 1.32 1.33 1.37 1.43 1.56 1.76 1.91 1.95 1.76 1.60 1.54 1.56 1.58 1.51 1.26 1.13 1.12 1.19 1.03 0.92 0.86 0.84 0.93 0.91 0.91 0.97 1.04 1.14 1.25 1.36 1.53 1.69 1.83 1.91
1.08 1.15 1.19 1.24 1.25 1.28 1.33 1.38 1.50 1.63 1.83 1.91 1.81 1.67 1.58 1.52 1.62 1.52 1.38 1.44 1.19 1.13 1.05 0.97 0.90 0.88 1.09 1.11 0.89 0.88 0.92 1.04 1.12 1.20 1.32 1.43 1.53 1.60
0.92 1.03 1.10 1.14 1.15 1.23 1.29 1.36 1.45 1.62 1.78 1.85 1.74 1.62 1.56 1.57 1.66 1.68 1.60 1.52 1.38 1.10 1.09 1.03 1.00 1.01 1.33 1.82 1.31 1.01 0.95 1.01 1.08 1.15 1.18 1.19 1.20 1.24
0.81 0.89 0.96 0.98 0.99 1.06 1.09 1.21 1.39 1.57 1.67 1.76 1.71 1.65 1.58 1.69 1.71 1.64 1.58 1.56 1.43 1.28 1.26 1.13 1.25 1.52 2.03 2.64 2.15 1.51 1.28 1.16 1.08 1.12 1.14 1.12 1.07 1.03
0.87 0.88 0.84 0.84 0.82 0.79 0.86 0.97 1.17 1.40 1.60 1.71 1.68 1.67 1.63 1.68 1.78 1.75 1.70 1.72 1.67 1.40 1.34 1.29 1.49 2.23 2.85 3.12 2.66 1.83 1.52 1.29 1.16 1.19 1.22 1.19 1.05 0.95
0.94 0.91 0.77 0.73 0.84 0.85 0.87 0.89 1.02 1.15 1.39 1.64 1.72 1.64 1.64 1.69 1.85 1.90 1.82 1.80 1.74 1.52 1.55 1.55 1.73 2.53 2.76 2.87 2.68 1.90 1.59 1.43 1.36 1.42 1.40 1.21 1.03 0.92
0.76 0.82 0.90 0.91 0.85 0.89 0.89 1.00 1.09 1.19 1.26 1.39 1.60 1.56 1.52 1.63 1.77 1.80 1.76 1.70 1.64 1.51 1.54 1.70 1.89 2.40 2.37 2.47 2.49 1.96 1.65 1.52 1.47 1.46 1.41 1.20 1.00 0.89
0.59 0.64 0.71 0.76 0.77 0.84 0.95 1.12 1.18 1.30 1.29 1.44 1.47 1.41 1.42 1.46 1.44 1.50 1.75 1.89 1.80 1.54 1.43 1.59 1.79 2.09 2.14 2.21 2.10 1.90 1.71 1.59 1.48 1.42 1.32 1.09 0.97 0.92
0.63 0.69 0.66 0.60 0.67 0.78 0.98 1.21 1.37 1.42 1.50 1.63 1.60 1.57 1.48 1.45 1.37 1.41 1.72 1.94 1.91 1.67 1.39 1.44 1.58 1.77 2.02 2.01 1.83 1.69 1.72 1.74 1.62 1.54 1.37 1.07 0.86 0.83
0.67 0.75 0.74 0.63 0.59 0.67 0.88 1.10 1.27 1.32 1.54 1.79 1.66 1.50 1.45 1.42 1.39 1.40 1.55 1.67 1.65 1.54 1.29 1.38 1.57 1.68 1.81 1.86 1.80 1.75 1.67 1.66 1.67 1.71 1.59 1.27 0.94 0.74
0.72 0.73 0.72 0.67 0.63 0.71 0.86 1.04 1.17 1.36 1.57 1.68 1.47 1.31 1.22 1.20 1.25 1.21 1.20 1.23 1.29 1.27 1.21 1.34 1.59 1.76 1.77 1.65 1.74 1.74 1.72 1.72 1.70 1.73 1.72 1.54 1.23 1.02
0.64 0.70 0.66 0.62 0.72 0.93 1.05 1.16 1.32 1.55 1.60 1.47 1.34 1.21 1.10 1.12 1.10 1.07 1.07 1.11 1.10 0.98 0.92 1.05 1.33 1.54 1.66 1.64 1.67 1.67 1.77 1.94 1.91 1.87 1.81 1.64 1.42 1.21
0.60 0.74 0.78 0.78 0.95 1.16 1.30 1.40 1.51 1.60 1.46 1.32 1.24 1.12 1.00 1.07 1.12 1.07 1.16 1.19 1.18 1.10 0.98 0.99 1.13 1.34 1.48 1.48 1.61 1.72 1.76 2.12 2.20 2.00 1.93 1.86 1.60 1.37
0.58 0.76 0.90 0.94 1.07 1.22 1.35 1.42 1.48 1.49 1.42 1.29 1.21 1.12 1.04 1.03 1.00 0.94 1.04 1.11 1.15 1.17 1.14 1.10 1.13 1.19 1.28 1.36 1.55 1.67 1.80 2.05 2.17 1.96 1.83 1.92 1.79 1.51
0.64 0.91 1.00 0.98 1.03 1.13 1.25 1.34 1.34 1.32 1.28 1.29 1.27 1.22 1.13 1.03 0.99 0.94 0.95 1.03 1.12 1.10 1.09 1.07 1.05 1.07 1.17 1.29 1.47 1.58 1.62 1.81 1.88 1.74 1.54 1.60 1.76 1.56
0.69 0.90 1.00 1.04 1.07 1.11 1.14 1.18 1.24 1.25 1.19 1.21 1.23 1.17 1.06 0.98 0.96 0.96 0.95 1.00 1.03 0.98 0.91 0.84 0.85 0.93 1.06 1.35 1.51 1.54 1.54 1.55 1.55 1.54 1.44 1.34 1.45 1.44
0.68 0.86 0.97 1.04 1.09 1.12 1.12 1.09 1.13 1.16 1.11 1.06 1.10 1.09 1.01 0.96 0.97 0.98 0.98 0.93 0.94 0.88 0.84 0.77 0.74 0.82 0.97 1.19 1.55 1.70 1.48 1.29 1.24 1.34 1.35 1.30 1.39 1.41
0.62 0.74 0.85 0.94 0.96 0.97 1.02 1.03 1.06 1.11 1.04 1.00 1.04 1.07 1.04 0.99 0.93 0.85 0.81 0.73 0.79 0.83 0.81 0.81 0.77 0.72 0.70 0.84 1.14 1.42 1.46 1.32 1.18 1.16 1.16 1.23 1.26 1.16
0.59 0.68 0.76 0.79 0.80 0.76 0.77 0.82 0.86 0.89 0.90 0.95 1.00 0.96 0.90 0.86 0.78 0.71 0.70 0.73 0.78 0.81 0.78 0.74 0.69 0.68 0.72 0.84 1.00 1.18 1.28 1.17 1.08 1.07 1.04 0.98 0.96 1.00
0.63 0.67 0.70 0.70 0.69 0.66 0.65 0.66 0.70 0.75 0.79 0.82 0.87 0.85 0.78 0.74 0.69 0.62 0.60 0.60 0.61 0.63 0.67 0.70 0.72 0.70 0.72 0.74 0.77 0.88 0.96 0.97 0.91 0.88 0.98 0.98 0.89 0.95

GEFSNE_prec_meanprecacc_270.txt.gz
Total_Precipitation_Accumulation
1.51 1.51 1.51 1.52 1.63 1.79 1.96 2.24 2.45 2.34 2.04 1.79 1.77 1.71 1.65 1.70 1.89 1.62 1.50 1.50 1.35 1.26 1.25 1.23 1.26 1.29 1.31 1.28 1.30 1.37 1.49 1.67 1.91 2.10 2.27 2.47 2.63 2.76
1.39 1.37 1.35 1.35 1.41 1.47 1.58 1.78 2.06 2.25 2.08 1.72 1.66 1.61 1.58 1.52 1.73 1.54 1.53 1.53 1.29 1.12 1.05 1.04 1.06 1.12 1.13 1.11 1.12 1.15 1.21 1.31 1.50 1.72 1.93 2.14 2.30 2.47
1.24 1.27 1.29 1.34 1.40 1.35 1.40 1.52 1.69 1.92 2.04 1.82 1.67 1.59 1.57 1.63 1.62 1.49 1.40 1.31 1.21 1.15 0.99 0.93 0.94 1.01 1.02 1.01 1.04 1.06 1.08 1.18 1.34 1.51 1.71 1.92 2.08 2.18
1.16 1.24 1.25 1.28 1.35 1.35 1.40 1.46 1.59 1.79 1.94 1.98 1.79 1.64 1.59 1.59 1.60 1.53 1.27 1.14 1.13 1.19 1.04 0.92 0.86 0.85 0.93 0.92 0.93 0.98 1.05 1.15 1.25 1.37 1.54 1.71 1.85 1.93
1.10 1.17 1.22 1.27 1.28 1.30 1.35 1.40 1.53 1.66 1.84 1.94 1.83 1.70 1.61 1.55 1.65 1.54 1.39 1.45 1.20 1.13 1.05 0.98 0.90 0.89 1.09 1.12 0.91 0.89 0.94 1.05 1.13 1.21 1.34 1.45 1.55 1.63
0.94 1.05 1.12 1.17 1.18 1.26 1.31 1.38 1.47 1.65 1.81 1.87 1.77 1.64 1.59 1.59 1.69 1.70 1.62 1.53 1.39 1.10 1.09 1.03 1.00 1.02 1.33 1.83 1.33 1.03 0.97 1.02 1.09 1.16 1.19 1.20 1.22 1.25
0.82 0.91 0.97 1.00 1.01 1.07 1.10 1.23 1.41 1.60 1.70 1.79 1.75 1.68 1.61 1.72 1.74 1.66 1.60 1.58 1.44 1.28 1.26 1.14 1.25 1.54 2.05 2.65 2.16 1.53 1.29 1.17 1.10 1.13 1.15 1.13 1.08 1.05
0.90 0.90 0.86 0.86 0.83 0.80 0.88 0.99 1.18 1.42 1.64 1.75 1.71 1.70 1.66 1.71 1.81 1.77 1.73 1.75 1.69 1.42 1.36 1.31 1.50 2.25 2.87 3.14 2.67 1.85 1.53 1.31 1.17 1.20 1.23 1.20 1.07 0.97
0.96 0.93 0.79 0.74 0.85 0.87 0.89 0.91 1.03 1.16 1.40 1.67 1.75 1.67 1.68 1.73 1.88 1.94 1.86 1.83 1.77 1.54 1.58 1.57 1.75 2.54 2.77 2.88 2.68 1.91 1.60 1.44 1.37 1.42 1.40 1.22 1.04 0.94
0.78 0.84 0.92 0.93 0.87 0.90 0.91 1.02 1.10 1.21 1.28 1.41 1.63 1.59 1.55 1.67 1.81 1.84 1.79 1.74 1.67 1.54 1.58 1.73 1.91 2.41 2.38 2.48 2.50 1.97 1.65 1.53 1.47 1.47 1.42 1.20 1.01 0.90
0.61 0.65 0.72 0.78 0.78 0.85 0.96 1.14 1.20 1.33 1.30 1.45 1.49 1.43 1.44 1.48 1.46 1.52 1.78 1.92 1.83 1.57 1.47 1.62 1.81 2.11 2.16 2.22 2.11 1.91 1.72 1.60 1.48 1.42 1.32 1.10 0.98 0.93
0.65 0.71 0.68 0.62 0.67 0.79 0.99 1.23 1.39 1.46 1.53 1.66 1.62 1.59 1.49 1.46 1.38 1.43 1.74 1.96 1.95 1.71 1.43 1.49 1.62 1.81 2.06 2.03 1.85 1.71 1.74 1.75 1.63 1.55 1.37 1.08 0.87 0.84
0.69 0.77 0.77 0.64 0.59 0.67 0.88 1.11 1.29 1.34 1.57 1.83 1.69 1.53 1.48 1.45 1.42 1.42 1.58 1.71 1.70 1.58 1.32 1.43 1.62 1.72 1.85 1.90 1.83 1.79 1.69 1.68 1.68 1.73 1.60 1.28 0.95 0.76
0.75 0.75 0.73 0.68 0.65 0.72 0.87 1.04 1.18 1.38 1.59 1.71 1.50 1.33 1.24 1.22 1.28 1.25 1.24 1.27 1.34 1.32 1.25 1.39 1.65 1.81 1.81 1.70 1.78 1.78 1.76 1.75 1.73 1.76 1.75 1.57 1.26 1.04
0.65 0.71 0.67 0.63 0.73 0.95 1.06 1.16 1.33 1.56 1.62 1.49 1.35 1.22 1.11 1.14 1.12 1.11 1.10 1.16 1.15 1.03 0.96 1.10 1.39 1.59 1.71 1.69 1.71 1.70 1.80 1.97 1.95 1.91 1.85 1.67 1.44 1.23
0.61 0.74 0.79 0.79 0.96 1.16 1.31 1.40 1.52 1.62 1.47 1.33 1.26 1.14 1.02 1.10 1.15 1.10 1.20 1.23 1.22 1.13 1.02 1.03 1.18 1.39 1.52 1.53 1.67 1.77 1.80 2.16 2.23 2.04 1.98 1.91 1.64 1.40
0.59 0.77 0.92 0.96 1.08 1.23 1.36 1.44 1.50 1.51 1.44 1.30 1.23 1.15 1.07 1.07 1.04 0.98 1.07 1.14 1.19 1.20 1.17 1.14 1.17 1.25 1.33 1.41 1.60 1.72 1.84 2.09 2.21 2.01 1.90 1.98 1.84 1.55
0.65 0.93 1.02 1.00 1.05 1.14 1.26 1.37 1.38 1.35 1.32 1.33 1.31 1.27 1.19 1.08 1.03 0.98 0.99 1.07 1.15 1.13 1.12 1.10 1.10 1.13 1.22 1.33 1.50 1.62 1.66 1.86 1.92 1.79 1.60 1.67 1.82 1.61
0.70 0.92 1.03 1.06 1.09 1.13 1.16 1.21 1.27 1.29 1.24 1.26 1.28 1.22 1.11 1.03 1.00 0.99 0.99 1.04 1.07 1.01 0.94 0.88 0.90 0.98 1.11 1.38 1.53 1.57 1.57 1.59 1.60 1.59 1.49 1.39 1.50 1.49
0.70 0.89 1.00 1.05 1.10 1.14 1.15 1.12 1.16 1.20 1.16 1.11 1.15 1.13 1.05 1.00 1.00 1.01 1.01 0.97 0.97 0.91 0.88 0.81 0.79 0.87 1.01 1.23 1.58 1.72 1.50 1.32 1.29 1.39 1.40 1.35 1.44 1.46
0.66 0.77 0.88 0.96 0.98 1.00 1.05 1.07 1.10 1.14 1.09 1.05 1.09 1.11 1.08 1.02 0.95 0.87 0.83 0.76 0.83 0.86 0.84 0.84 0.81 0.76 0.74 0.87 1.16 1.44 1.49 1.35 1.20 1.20 1.21 1.28 1.32 1.21
0.60 0.70 0.78 0.81 0.82 0.79 0.81 0.85 0.89 0.92 0.93 0.98 1.03 1.00 0.93 0.89 0.81 0.73 0.72 0.75 0.80 0.84 0.81 0.77 0.72 0.72 0.76 0.88 1.03 1.21 1.31 1.21 1.10 1.08 1.06 1.01 1.00 1.04
0.64 0.68 0.72 0.72 0.71 0.69 0.67 0.68 0.72 0.77 0.80 0.83 0.89 0.87 0.80 0.75 0.70 0.64 0.61 0.61 0.63 0.65 0.69 0.72 0.74 0.73 0.75 0.78 0.80 0.90 1.00 1.01 0.95 0.91 1.00 0.99 0.91 0.98

GEFSNE_prec_meanprecacc_276.txt.gz
Total_Precipitation_Accumulation
1.53 1.54 1.55 1.55 1.67 1.82 1.99 2.28 2.49 2.40 2.11 1.86 1.82 1.75 1.69 1.74 1.93 1.67 1.53 1.54 1.38 1.29 1.28 1.25 1.28 1.32 1.35 1.32 1.32 1.40 1.52 1.69 1.94 2.13 2.30 2.50 2.65 2.79
1.41 1.39 1.37 1.36 1.43 1.49 1.60 1.80 2.09 2.30 2.13 1.77 1.71 1.64 1.62 1.55 1.77 1.57 1.56 1.55 1.31 1.14 1.07 1.06 1.09 1.14 1.16 1.14 1.14 1.17 1.23 1.33 1.52 1.74 1.96 2.16 2.33 2.50
1.26 1.28 1.30 1.35 1.41 1.36 1.41 1.53 1.70 1.94 2.07 1.87 1.71 1.62 1.60 1.65 1.64 1.52 1.43 1.34 1.23 1.17 1.01 0.95 0.95 1.03 1.04 1.03 1.07 1.08 1.09 1.19 1.35 1.53 1.73 1.93 2.10 2.20
1.17 1.26 1.27 1.30 1.36 1.36 1.41 1.47 1.60 1.80 1.95 1.99 1.81 1.65 1.60 1.61 1.62 1.55 1.30 1.17 1.15 1.21 1.06 0.94 0.88 0.87 0.95 0.95 0.95 1.01 1.07 1.16 1.27 1.39 1.56 1.72 1.86 1.95
1.11 1.19 1.23 1.28 1.29 1.31 1.37 1.41 1.54 1.67 1.86 1.96 1.84 1.71 1.63 1.57 1.67 1.56 1.42 1.48 1.22 1.15 1.07 1.00 0.92 0.91 1.12 1.14 0.94 0.92 0.96 1.07 1.14 1.22 1.34 1.46 1.56 1.64
0.95 1.06 1.13 1.18 1.19 1.27 1.32 1.40 1.48 1.67 1.83 1.91 1.79 1.66 1.60 1.60 1.70 1.72 1.63 1.56 1.42 1.12 1.11 1.05 1.01 1.03 1.35 1.85 1.35 1.05 1.00 1.04 1.11 1.17 1.19 1.20 1.22 1.26
0.84 0.92 0.98 1.01 1.02 1.08 1.11 1.24 1.42 1.61 1.71 1.81 1.76 1.69 1.61 1.72 1.75 1.68 1.62 1.60 1.46 1.30 1.27 1.15 1.26 1.54 2.06 2.67 2.19 1.56 1.32 1.20 1.12 1.15 1.17 1.14 1.09 1.05
0.91 0.92 0.87 0.87 0.84 0.81 0.88 0.99 1.19 1.43 1.64 1.76 1.73 1.72 1.67 1.71 1.82 1.79 1.74 1.76 1.70 1.43 1.37 1.32 1.51 2.26 2.88 3.16 2.69 1.87 1.55 1.33 1.19 1.22 1.27 1.23 1.09 0.98
0.98 0.95 0.80 0.75 0.86 0.88 0.89 0.91 1.04 1.17 1.41 1.68 1.77 1.69 1.70 1.75 1.91 1.96 1.88 1.85 1.78 1.55 1.59 1.58 1.76 2.55 2.77 2.89 2.70 1.92 1.61 1.45 1.38 1.45 1.44 1.25 1.07 0.96
0.79 0.85 0.92 0.94 0.88 0.92 0.92 1.03 1.11 1.22 1.29 1.43 1.65 1.61 1.57 1.69 1.84 1.87 1.82 1.76 1.68 1.55 1.59 1.74 1.92 2.42 2.39 2.48 2.50 1.98 1.66 1.54 1.49 1.50 1.45 1.22 1.03 0.91
0.62 0.67 0.74 0.79 0.79 0.86 0.97 1.15 1.21 1.33 1.31 1.47 1.51 1.45 1.46 1.50 1.49 1.56 1.82 1.95 1.85 1.57 1.48 1.63 1.82 2.12 2.17 2.23 2.12 1.92 1.73 1.61 1.50 1.44 1.34 1.11 0.99 0.95
0.67 0.72 0.69 0.63 0.68 0.80 1.00 1.24 1.40 1.46 1.54 1.67 1.63 1.60 1.51 1.48 1.40 1.45 1.76 1.99 1.96 1.73 1.44 1.49 1.62 1.81 2.06 2.03 1.85 1.71 1.74 1.76 1.64 1.56 1.38 1.10 0.88 0.84
0.72 0.79 0.78 0.65 0.60 0.67 0.89 1.12 1.29 1.35 1.59 1.84 1.70 1.54 1.49 1.46 1.43 1.44 1.60 1.72 1.71 1.60 1.34 1.45 1.63 1.73 1.85 1.90 1.83 1.79 1.70 1.68 1.68 1.73 1.60 1.29 0.97 0.78
0.75 0.75 0.74 0.69 0.65 0.72 0.88 1.05 1.18 1.38 1.60 1.72 1.51 1.34 1.25 1.24 1.29 1.26 1.26 1.29 1.36 1.34 1.27 1.41 1.67 1.82 1.82 1.70 1.78 1.78 1.76 1.76 1.74 1.76 1.75 1.57 1.27 1.06
0.66 0.72 0.68 0.64 0.74 0.95 1.07 1.17 1.33 1.57 1.63 1.50 1.36 1.24 1.13 1.15 1.14 1.13 1.13 1.18 1.18 1.05 0.99 1.13 1.41 1.61 1.72 1.70 1.72 1.71 1.81 1.98 1.96 1.92 1.85 1.68 1.45 1.24
0.63 0.76 0.80 0.80 0.97 1.17 1.31 1.40 1.52 1.62 1.48 1.34 1.27 1.15 1.04 1.12 1.16 1.12 1.22 1.26 1.25 1.17 1.05 1.07 1.21 1.43 1.56 1.56 1.69 1.78 1.82 2.18 2.25 2.05 2.00 1.93 1.66 1.42
0.60 0.79 0.94 0.98 1.09 1.24 1.37 1.44 1.50 1.51 1.44 1.31 1.23 1.15 1.08 1.08 1.05 1.00 1.10 1.17 1.21 1.22 1.20 1.17 1.20 1.29 1.37 1.45 1.64 1.76 1.87 2.11 2.23 2.02 1.92 2.00 1.86 1.57
0.67 0.94 1.03 1.01 1.06 1.15 1.27 1.38 1.38 1.36 1.33 1.33 1.32 1.28 1.21 1.11 1.06 1.00 1.01 1.09 1.18 1.15 1.14 1.12 1.12 1.16 1.26 1.37 1.54 1.65 1.69 1.88 1.94 1.81 1.63 1.69 1.84 1.64
0.72 0.93 1.03 1.07 1.10 1.14 1.17 1.22 1.29 1.30 1.26 1.27 1.29 1.24 1.14 1.06 1.02 1.02 1.02 1.07 1.10 1.05 0.97 0.90 0.92 1.00 1.13 1.40 1.55 1.58 1.58 1.61 1.62 1.62 1.51 1.41 1.53 1.51
0.72 0.90 1.01 1.06 1.11 1.15 1.16 1.14 1.18 1.22 1.18 1.13 1.17 1.15 1.07 1.02 1.02 1.03 1.03 0.99 0.99 0.94 0.91 0.84 0.82 0.90 1.04 1.24 1.60 1.74 1.51 1.32 1.29 1.40 1.42 1.37 1.46 1.47
0.67 0.78 0.88 0.97 0.99 1.02 1.07 1.09 1.12 1.16 1.11 1.07 1.10 1.12 1.09 1.04 0.97 0.89 0.85 0.78 0.85 0.88 0.86 0.87 0.84 0.78 0.76 0.89 1.18 1.45 1.50 1.36 1.21 1.20 1.22 1.29 1.33 1.23
0.62 0.71 0.79 0.83 0.84 0.81 0.82 0.86 0.90 0.93 0.94 0.99 1.04 1.01 0.95 0.90 0.82 0.75 0.74 0.77 0.82 0.85 0.83 0.78 0.74 0.73 0.78 0.89 1.05 1.22 1.33 1.22 1.11 1.09 1.07 1.02 1.01 1.06
0.67 0.70 0.73 0.73 0.72 0.70 0.68 0.68 0.73 0.78 0.81 0.84 0.90 0.89 0.82 0.77 0.71 0.65 0.62 0.63 0.64 0.66 0.70 0.73 0.75 0.75 0.77 0.79 0.82 0.92 1.01 1.02 0.95 0.92 1.01 1.01 0.93 0.99

GEFSNE_prec_meanprecacc_282.txt.gz
Total_Precipitation_Accumulation
1.55 1.56 1.56 1.58 1.71 1.87 2.04 2.32 2.53 2.43 2.13 1.88 1.84 1.76 1.71 1.77 1.96 1.70 1.58 1.61 1.46 1.36 1.35 1.32 1.35 1.39 1.43 1.39 1.40 1.47 1.58 1.74 1.99 2.18 2.35 2.56 2.71 2.84
1.44 1.41 1.39 1.39 1.47 1.51 1.63 1.83 2.12 2.34 2.16 1.79 1.73 1.65 1.64 1.57 1.80 1.60 1.58 1.60 1.38 1.21 1.14 1.12 1.13 1.19 1.21 1.19 1.20 1.23 1.29 1.38 1.56 1.77 1.99 2.20 2.37 2.55
1.27 1.30 1.32 1.37 1.44 1.39 1.43 1.55 1.73 1.98 2.11 1.89 1.72 1.63 1.61 1.67 1.65 1.54 1.44 1.36 1.26 1.21 1.06 0.99 0.99 1.06 1.07 1.06 1.10 1.13 1.14 1.24 1.40 1.57 1.76 1.96 2.13 2.23
1.18 1.27 1.28 1.30 1.37 1.38 1.44 1.50 1.62 1.82 1.97 2.01 1.82 1.66 1.61 1.63 1.64 1.57 1.31 1.19 1.17 1.24 1.09 0.97 0.90 0.89 0.98 0.97 0.98 1.04 1.12 1.20 1.31 1.44 1.60 1.76 1.89 1.98
1.12 1.19 1.24 1.29 1.30 1.32 1.38 1.42 1.55 1.69 1.87 1.97 1.86 1.72 1.65 1.60 1.70 1.58 1.44 1.50 1.24 1.17 1.09 1.02 0.94 0.92 1.13 1.16 0.95 0.94 1.00 1.10 1.18 1.27 1.40 1.52 1.61 1.68
0.96 1.08 1.14 1.19 1.20 1.28 1.33 1.40 1.49 1.68 1.85 1.92 1.81 1.69 1.63 1.64 1.74 1.75 1.65 1.58 1.43 1.13 1.12 1.07 1.02 1.04 1.36 1.86 1.37 1.07 1.03 1.08 1.15 1.21 1.25 1.26 1.27 1.30
0.87 0.95 1.01 1.03 1.03 1.10 1.12 1.25 1.43 1.61 1.72 1.82 1.77 1.71 1.64 1.76 1.78 1.70 1.65 1.62 1.48 1.31 1.29 1.16 1.27 1.55 2.07 2.68 2.20 1.57 1.35 1.23 1.16 1.20 1.22 1.19 1.13 1.09
0.92 0.94 0.89 0.89 0.86 0.82 0.89 1.00 1.19 1.43 1.65 1.76 1.73 1.73 1.68 1.74 1.85 1.82 1.77 1.79 1.72 1.45 1.39 1.33 1.52 2.26 2.89 3.17 2.71 1.88 1.57 1.36 1.24 1.27 1.32 1.28 1.13 1.02
0.99 0.96 0.81 0.76 0.87 0.89 0.90 0.92 1.04 1.17 1.42 1.69 1.77 1.69 1.71 1.76 1.94 1.99 1.91 1.88 1.80 1.57 1.60 1.59 1.76 2.56 2.79 2.90 2.72 1.94 1.63 1.48 1.43 1.50 1.48 1.29 1.10 0.98
0.80 0.86 0.93 0.94 0.89 0.93 0.93 1.03 1.11 1.22 1.30 1.44 1.65 1.61 1.58 1.71 1.86 1.89 1.84 1.78 1.70 1.57 1.61 1.75 1.93 2.43 2.40 2.50 2.53 2.00 1.69 1.57 1.52 1.53 1.49 1.26 1.06 0.95
0.63 0.68 0.75 0.80 0.80 0.87 0.98 1.15 1.21 1.34 1.32 1.48 1.51 1.46 1.47 1.52 1.51 1.59 1.83 1.97 1.86 1.60 1.51 1.65 1.84 2.14 2.18 2.24 2.13 1.93 1.74 1.63 1.52 1.46 1.37 1.15 1.03 0.98
0.69 0.74 0.71 0.65 0.70 0.81 1.01 1.25 1.41 1.46 1.54 1.67 1.63 1.60 1.51 1.48 1.42 1.46 1.77 2.01 1.98 1.74 1.47 1.51 1.64 1.83 2.07 2.04 1.86 1.72 1.75 1.77 1.65 1.57 1.40 1.12 0.91 0.87
0.74 0.81 0.80 0.67 0.61 0.69 0.90 1.13 1.30 1.35 1.59 1.84 1.70 1.54 1.49 1.46 1.44 1.45 1.61 1.73 1.72 1.61 1.36 1.46 1.65 1.74 1.86 1.91 1.84 1.79 1.70 1.69 1.69 1.74 1.62 1.30 0.98 0.79
0.77 0.77 0.76 0.71 0.68 0.75 0.90 1.07 1.20 1.40 1.61 1.72 1.52 1.35 1.26 1.24 1.29 1.27 1.27 1.30 1.37 1.35 1.29 1.43 1.69 1.84 1.83 1.71 1.79 1.79 1.77 1.76 1.75 1.77 1.76 1.58 1.27 1.07
0.68 0.73 0.70 0.66 0.76 0.97 1.09 1.19 1.35 1.59 1.64 1.51 1.37 1.24 1.13 1.15 1.14 1.13 1.13 1.18 1.18 1.06 1.00 1.15 1.43 1.64 1.74 1.71 1.73 1.72 1.82 1.99 1.97 1.93 1.86 1.69 1.46 1.24
0.65 0.78 0.82 0.82 0.98 1.18 1.32 1.42 1.53 1.63 1.49 1.35 1.28 1.16 1.05 1.12 1.17 1.13 1.22 1.26 1.25 1.18 1.07 1.08 1.24 1.47 1.58 1.57 1.70 1.79 1.83 2.20 2.26 2.06 2.01 1.93 1.67 1.43
0.63 0.81 0.95 0.99 1.10 1.25 1.38 1.45 1.51 1.52 1.44 1.31 1.24 1.16 1.09 1.09 1.06 1.01 1.11 1.18 1.22 1.23 1.21 1.18 1.22 1.32 1.40 1.47 1.66 1.78 1.90 2.14 2.25 2.04 1.93 2.01 1.87 1.58
0.71 0.96 1.04 1.02 1.07 1.16 1.28 1.38 1.39 1.37 1.33 1.34 1.33 1.29 1.21 1.11 1.07 1.01 1.02 1.10 1.18 1.16 1.16 1.15 1.15 1.18 1.28 1.39 1.56 1.67 1.71 1.90 1.96 1.82 1.64 1.70 1.85 1.65
0.74 0.95 1.05 1.08 1.10 1.14 1.17 1.23 1.29 1.31 1.26 1.28 1.30 1.24 1.14 1.06 1.03 1.02 1.02 1.08 1.11 1.06 0.99 0.93 0.94 1.02 1.15 1.43 1.58 1.61 1.60 1.63 1.64 1.64 1.53 1.43 1.54 1.53
0.74 0.92 1.02 1.07 1.12 1.16 1.16 1.14 1.19 1.23 1.19 1.14 1.18 1.16 1.08 1.03 1.03 1.04 1.04 1.00 1.00 0.95 0.92 0.86 0.84 0.92 1.06 1.27 1.63 1.77 1.54 1.35 1.32 1.42 1.44 1.39 1.48 1.50
0.68 0.80 0.90 0.98 1.00 1.02 1.07 1.09 1.13 1.17 1.12 1.07 1.11 1.12 1.10 1.04 0.98 0.90 0.86 0.79 0.86 0.89 0.87 0.87 0.85 0.80 0.78 0.91 1.20 1.48 1.53 1.39 1.25 1.23 1.24 1.31 1.35 1.25
0.63 0.72 0.81 0.85 0.85 0.82 0.83 0.87 0.91 0.94 0.95 1.00 1.05 1.02 0.95 0.91 0.83 0.75 0.75 0.78 0.83 0.86 0.84 0.79 0.75 0.75 0.79 0.91 1.07 1.25 1.35 1.23 1.13 1.11 1.09 1.05 1.03 1.08
0.68 0.71 0.74 0.75 0.74 0.71 0.69 0.69 0.74 0.79 0.82 0.85 0.91 0.89 0.82 0.77 0.72 0.66 0.63 0.63 0.65 0.67 0.71 0.74 0.76 0.76 0.78 0.81 0.84 0.94 1.03 1.04 0.97 0.94 1.02 1.02 0.94 1.01